Overview Statistics Trail Chart Weather Telemetry Raw packets
 

This is the latest recevied weather packets stored in our database for station/object W0AKY-13. If no packets are shown the sender has not sent any weather packets the latest 10 day(s).

<< 19 20 21 22 23 24 25 >>
Time Temp. Humidity Pressure Rain* Wind** Luminosity Snow
1788483530 30.56° C 65% 1011.2 hPa 0 mm - 1 W/m² -
1788483226 30.56° C 63% 1010.9 hPa 0 mm - 2 W/m² -
1788482921 30.56° C 63% 1011.1 hPa 0 mm - 3 W/m² -
1788482618 31.11° C 62% 1010.9 hPa 0 mm - 4 W/m² -
1788482317 31.11° C 63% 1010.8 hPa 0 mm - 6 W/m² -
1788482013 31.67° C 62% 1010.7 hPa 0 mm - 7 W/m² -
1788481708 31.67° C 62% 1010.7 hPa 0 mm - 9 W/m² -
1788481405 32.22° C 59% 1010.8 hPa 0 mm - 11 W/m² -
1788481129 32.22° C 59% 1011 hPa 0 mm - 13 W/m² -
1788480799 32.78° C 59% 1010.6 hPa 0 mm - 16 W/m² -
1788480494 32.78° C 59% 1010.6 hPa 0 mm - 18 W/m² -
1788480194 32.78° C 57% 1010.8 hPa 0 mm - 21 W/m² -
1788479888 32.78° C 56% 1010.6 hPa 0 mm - 23 W/m² -
1788479585 33.33° C 56% 1010.8 hPa 0 mm - 23 W/m² -
1788479283 33.33° C 56% 1010.7 hPa 0 mm - 24 W/m² -
1788478980 33.33° C 55% 1010.6 hPa 0 mm - 25 W/m² -
1788478676 33.89° C 54% 1010.7 hPa 0 mm - 26 W/m² -
1788478371 33.89° C 55% 1010.7 hPa 0 mm - 27 W/m² -
1788478070 33.89° C 55% 1010.5 hPa 0 mm - 29 W/m² -
1788477767 33.89° C 56% 1010.6 hPa 0 mm - 30 W/m² -
1788477466 34.44° C 55% 1010.2 hPa 0 mm - 33 W/m² -
1788477161 34.44° C 53% 1010.6 hPa 0 mm - 34 W/m² -
1788476857 34.44° C 53% 1010.4 hPa 0 mm - 40 W/m² -
1788476551 35.56° C 53% 1010.5 hPa 0 mm - 76 W/m² -
1788476248 35.56° C 51% 1010.4 hPa 0 mm - 75 W/m² -

* Rain latest hour (hover to see other rain measurements)
** Current wind speed in m/s (hover to see current wind gust speed)